This is the latest recevied weather packets stored in our database for station/object KD9DOE. If no packets are shown the sender has not sent any weather packets the latest 10 day(s).
| Time | Temp. | Humidity | Pressure | Rain* | Wind** | Luminosity | Snow |
|---|---|---|---|---|---|---|---|
| 1777939454 | 21.67° C | 27% | 997.7 hPa | 0 mm | - | 21 W/m² | - |
| 1777939150 | 22.22° C | 27% | 997.4 hPa | 0 mm | - | 23 W/m² | - |
| 1777938848 | 22.22° C | 26% | 997.4 hPa | 0 mm | - | 26 W/m² | - |
| 1777938543 | 22.78° C | 27% | 997.4 hPa | 0 mm | - | 27 W/m² | - |
| 1777938241 | 22.78° C | 27% | 997.2 hPa | 0 mm | - | 28 W/m² | - |
| 1777937938 | 23.33° C | 28% | 997.2 hPa | 0 mm | - | 38 W/m² | - |
| 1777937633 | 23.33° C | 28% | 997.2 hPa | 0 mm | - | 51 W/m² | - |
| 1777937330 | 23.89° C | 29% | 997 hPa | 0 mm | - | 111 W/m² | - |
| 1777937027 | 23.89° C | 29% | 996.9 hPa | 0 mm | - | 112 W/m² | - |
| 1777936724 | 24.44° C | 29% | 996.7 hPa | 0 mm | - | 91 W/m² | - |
| 1777936421 | 25° C | 29% | 996.8 hPa | 0 mm | - | 56 W/m² | - |
| 1777936117 | 25° C | 29% | 996.7 hPa | 0 mm | - | 155 W/m² | - |
| 1777935815 | 25.56° C | 29% | 996.4 hPa | 0 mm | - | 148 W/m² | - |
| 1777935513 | 25.56° C | 28% | 996.7 hPa | 0 mm | - | 191 W/m² | - |
| 1777935209 | 25.56° C | 29% | 996.5 hPa | 0 mm | - | 150 W/m² | - |
| 1777934907 | 26.11° C | 28% | 996.5 hPa | 0 mm | - | 155 W/m² | - |
| 1777934604 | 26.11° C | 28% | 996.5 hPa | 0 mm | - | 228 W/m² | - |
| 1777934300 | 26.11° C | 29% | 996.4 hPa | 0 mm | - | 249 W/m² | - |
| 1777933996 | 26.67° C | 28% | 996.3 hPa | 0 mm | - | 237 W/m² | - |
| 1777933693 | 26.11° C | 28% | 996.3 hPa | 0 mm | - | 217 W/m² | - |
| 1777933389 | 26.67° C | 26% | 996.2 hPa | 0 mm | - | 97 W/m² | - |
| 1777933088 | 26.11° C | 26% | 996 hPa | 0 mm | - | 110 W/m² | - |
| 1777932784 | 26.11° C | 25% | 995.9 hPa | 0 mm | - | 113 W/m² | - |
| 1777932481 | 26.11° C | 26% | 996 hPa | 0 mm | - | 85 W/m² | - |
| 1777932178 | 26.11° C | 26% | 995.8 hPa | 0 mm | - | 122 W/m² | - |
* Rain latest hour (hover to see other rain measurements)
** Current wind speed in m/s (hover to see current wind gust speed)